KE0OLW-13 Weather Reports


Display with metric or nautical units.
time (UTC)temp
F
wind
direction
speed
MPH
gust
MPH
rain 1hr
in
rain 24hr
in
rain mn
in
humidity
%
barometer
mb
20230208094056 21 0.0 0.0 0.00 0.00 0.00 87 1020.6
20230208093015 21 0.0 0.0 0.00 0.00 0.00 87 1020.6
20230208092036 21 0.0 0.0 0.00 0.00 0.00 86 1020.6
20230208091015 21 0.0 0.0 0.00 0.00 0.00 87 1020.7
20230208090015 21 0.0 0.0 0.00 0.00 0.00 86 1020.8
20230208085016 22 0.0 0.0 0.00 0.00 0.00 85 1021.4
20230208084015 22 0.0 0.0 0.00 0.00 0.00 85 1021.1
20230208083015 22 0.0 0.0 0.00 0.00 0.00 85 1021.2
20230208082055 23 0.0 0.0 0.00 0.00 0.00 85 1021.3
20230208081036 23 0.0 0.0 0.00 0.00 0.00 84 1021.7
20230208080015 23 0.0 0.0 0.00 0.00 0.00 84 1022.0
20230208075016 23 0.0 0.0 0.00 0.00 0.00 83 1021.7
20230208074016 24 0.0 0.0 0.00 0.00 0.00 82 1022.2
20230208073015 24 0.0 0.0 0.00 0.00 0.00 81 1022.3
20230208072035 25 0.0 0.0 0.00 0.00 0.00 80 1022.4
20230208071016 25 0.0 0.0 0.00 0.00 0.00 79 1022.6
20230208070035 26 0.0 0.0 0.00 0.00 0.00 78 1022.5
20230208065015 26 0.0 0.0 0.00 0.00 0.00 79 1022.6
20230208064015 27 0.0 0.0 0.00 0.00 0.00 78 1023.0
20230208063016 27 0.0 1.0 0.00 0.00 0.00 77 1022.9
20230208062015 28 0.0 1.0 0.00 0.00 0.00 77 1022.5
20230208061015 28 0.0 2.0 0.00 0.00 0.00 77 1022.5
20230208060016 28 0 1.0 3.0 0.00 0.00 0.00 78 1022.5
20230208055016 27 338 1.0 4.0 0.00 0.00 0.00 77 1022.4
20230208054016 27 315 1.0 3.0 0.00 0.00 0.00 76 1022.0
20230208053016 26 338 1.0 5.0 0.00 0.00 0.00 78 1021.9
20230208052036 25 0.0 0.0 0.00 0.00 0.00 84 1021.5
20230208051016 25 0.0 0.0 0.00 0.00 0.00 84 1021.1
20230208050015 25 0.0 0.0 0.00 0.00 0.00 84 1020.7
20230208045015 26 0.0 0.0 0.00 0.00 0.00 84 1020.6
20230208044016 25 0.0 0.0 0.00 0.00 0.00 83 1020.3
20230208043015 26 0.0 0.0 0.00 0.00 0.00 83 1020.3
20230208042016 26 0.0 0.0 0.00 0.00 0.00 83 1020.1
20230208041035 26 0.0 0.0 0.00 0.00 0.00 81 1019.7
20230208040015 27 0.0 0.0 0.00 0.00 0.00 82 1019.7
20230208035015 27 0.0 0.0 0.00 0.00 0.00 81 1019.8
20230208034015 27 0.0 0.0 0.00 0.00 0.00 81 1019.5
20230208033035 28 0.0 0.0 0.00 0.00 0.00 81 1019.1
20230208032015 28 0.0 0.0 0.00 0.00 0.00 81 1018.7
20230208031016 28 0.0 0.0 0.00 0.00 0.00 80 1018.3
20230208030015 28 0.0 0.0 0.00 0.00 0.00 79 1018.3
20230208025015 29 0.0 0.0 0.00 0.00 0.00 79 1018.4
20230208024055 29 0.0 0.0 0.00 0.00 0.00 78 1018.5
20230208023015 29 0.0 0.0 0.00 0.00 0.00 78 1018.5
20230208022015 30 0.0 0.0 0.00 0.00 0.00 77 1018.4
20230208021016 30 0.0 0.0 0.00 0.00 0.00 76 1018.5
20230208020015 31 0.0 0.0 0.00 0.00 0.00 75 1019.0
20230208015015 32 0.0 0.0 0.00 0.00 0.00 74 1018.7
20230208014015 32 0.0 0.0 0.00 0.00 0.00 73 1019.1
20230208013015 33 0.0 0.0 0.00 0.00 0.00 71 1019.1
20230208012015 33 0.0 0.0 0.00 0.00 0.00 70 1019.2
20230208011018 34 0.0 0.0 0.00 0.00 0.00 68 1019.6
20230208010022 35 0.0 0.0 0.00 0.00 0.00 66 1019.5
20230208005017 36 0.0 0.0 0.00 0.00 0.00 65 1019.8
20230208004017 37 0.0 0.0 0.00 0.00 0.00 63 1020.1
20230208003017 38 0.0 0.0 0.00 0.00 0.00 60 1020.4
20230208002017 39 0.0 1.0 0.00 0.00 0.00 58 1020.3
20230208001024 40 0.0 1.0 0.00 0.00 0.00 55 1020.4
20230208000037 41 23 1.0 2.0 0.00 0.00 0.00 53 1020.4
20230207235017 41 0.0 2.0 0.00 0.00 0.00 51 1020.3
20230207234018 42 23 1.0 3.0 0.00 0.00 0.00 50 1020.7
20230207233017 43 0.0 2.0 0.00 0.00 0.00 50 1020.7
20230207232037 43 23 1.0 3.0 0.00 0.00 0.00 50 1021.1
20230207231017 44 0.0 1.0 0.00 0.00 0.00 47 1020.9
20230207230023 45 23 1.0 4.0 0.00 0.00 0.00 45 1020.9
20230207225017 46 0.0 2.0 0.00 0.00 0.00 41 1021.1
20230207224017 46 23 1.0 5.0 0.00 0.00 0.00 40 1021.1
20230207223017 47 113 1.0 3.0 0.00 0.00 0.00 38 1021.1
20230207222017 47 0.0 2.0 0.00 0.00 0.00 36 1021.4
20230207221017 48 0.0 2.0 0.00 0.00 0.00 31 1021.3
20230207220016 48 113 2.0 6.0 0.00 0.00 0.00 26 1021.5
20230207215016 48 113 1.0 4.0 0.00 0.00 0.00 27 1021.6
20230207214017 48 0.0 3.0 0.00 0.00 0.00 29 1021.6
20230207213038 48 0.0 3.0 0.00 0.00 0.00 28 1021.6
20230207212016 48 135 1.0 5.0 0.00 0.00 0.00 29 1021.6
20230207211017 48 90 1.0 5.0 0.00 0.00 0.00 27 1021.5
20230207210018 48 135 2.0 5.0 0.00 0.00 0.00 27 1021.4
20230207205016 48 113 1.0 5.0 0.00 0.00 0.00 28 1022.0
20230207204016 47 90 1.0 7.0 0.00 0.00 0.00 29 1021.7
20230207203016 47 135 1.0 4.0 0.00 0.00 0.00 30 1022.0
20230207202018 47 135 2.0 6.0 0.00 0.00 0.00 30 1022.2
20230207201016 47 135 1.0 5.0 0.00 0.00 0.00 32 1022.3
20230207200017 47 0.0 2.0 0.00 0.00 0.00 33 1022.9
20230207195516 46 135 1.0 4.0 0.00 0.00 0.00 35 1022.6
20230207194537 46 113 1.0 4.0 0.00 0.00 0.00 36 1023.1
20230207193516 46 135 1.0 4.0 0.00 0.00 0.00 32 1023.2
20230207192536 46 135 1.0 4.0 0.00 0.00 0.00 32 1023.3
20230207191519 46 158 1.0 4.0 0.00 0.00 0.00 33 1023.5
20230207190517 45 90 1.0 2.0 0.00 0.00 0.00 34 1023.6
20230207185536 45 90 1.0 4.0 0.00 0.00 0.00 35 1023.7
20230207184516 45 135 1.0 6.0 0.00 0.00 0.00 33 1023.8
20230207183517 45 0.0 3.0 0.00 0.00 0.00 33 1024.0
20230207182516 45 0.0 2.0 0.00 0.00 0.00 33 1024.2
20230207181516 44 0.0 2.0 0.00 0.00 0.00 33 1024.4
20230207180516 43 90 1.0 3.0 0.00 0.00 0.00 33 1024.4
20230207175518 43 0.0 2.0 0.00 0.00 0.00 34 1024.5
20230207174536 43 0.0 2.0 0.00 0.00 0.00 36 1024.5
20230207173520 42 0.0 1.0 0.00 0.00 0.00 36 1024.4
20230207172517 42 0.0 1.0 0.00 0.00 0.00 36 1024.3
20230207171516 41 0.0 1.0 0.00 0.00 0.00 38 1024.2
20230207170516 39 0.0 1.0 0.00 0.00 0.00 40 1023.9
20230207165516 38 0.0 1.0 0.00 0.00 0.00 47 1023.5
20230207164518 36 0.0 1.0 0.00 0.00 0.00 51 1023.4
20230207163527 35 0.0 1.0 0.00 0.00 0.00 56 1023.5
20230207162516 34 0.0 1.0 0.00 0.00 0.00 61 1023.2
20230207161516 32 0.0 0.0 0.00 0.00 0.00 64 1023.2
20230207160516 31 0.0 1.0 0.00 0.00 0.00 70 1023.0
20230207155516 30 0.0 0.0 0.00 0.00 0.00 81 1023.0
20230207154536 28 0.0 0.0 0.00 0.00 0.00 86 1022.6
20230207153516 26 0.0 0.0 0.00 0.00 0.00 89 1022.5
20230207152516 23 0.0 0.0 0.00 0.00 0.00 89 1021.6
20230207151517 22 0.0 0.0 0.00 0.00 0.00 89 1021.5
20230207150521 21 0.0 0.0 0.00 0.00 0.00 90 1021.4
20230207145517 20 0.0 0.0 0.00 0.00 0.00 89 1020.8
20230207144516 19 0.0 0.0 0.00 0.00 0.00 89 1020.6
20230207143516 19 0.0 0.0 0.00 0.00 0.00 89 1020.5
20230207142516 19 0.0 0.0 0.00 0.00 0.00 88 1020.7
20230207141521 19 0.0 0.0 0.00 0.00 0.00 89 1020.6
20230207140536 19 0.0 0.0 0.00 0.00 0.00 89 1020.4
20230207135516 19 0.0 0.0 0.00 0.00 0.00 89 1019.8
20230207134516 18 0.0 0.0 0.00 0.00 0.00 89 1019.7
20230207133517 18 0.0 0.0 0.00 0.00 0.00 88 1019.6
20230207132536 18 0.0 0.0 0.00 0.00 0.00 88 1019.5
20230207131516 18 0.0 0.0 0.00 0.00 0.00 88 1019.2
20230207130516 18 0.0 0.0 0.00 0.00 0.00 87 1019.1
20230207125516 19 0.0 0.0 0.00 0.00 0.00 87 1019.2
20230207124516 19 0.0 0.0 0.00 0.00 0.00 87 1019.0
20230207123516 19 0.0 0.0 0.00 0.00 0.00 87 1019.0
20230207122516 20 0.0 0.0 0.00 0.00 0.00 87 1019.4
20230207121516 20 0.0 0.0 0.00 0.00 0.00 87 1019.5
20230207120515 20 0.0 0.0 0.00 0.00 0.00 87 1019.5
20230207115516 20 0.0 0.0 0.00 0.00 0.00 87 1019.5
20230207114515 20 0.0 0.0 0.00 0.00 0.00 87 1019.8
20230207113517 20 0.0 0.0 0.00 0.00 0.00 87 1019.6
20230207112515 21 0.0 0.0 0.00 0.00 0.00 87 1019.9
20230207111516 21 0.0 0.0 0.00 0.00 0.00 87 1019.8
20230207110515 21 0.0 1.0 0.00 0.00 0.00 87 1019.6
20230207105556 21 0.0 0.0 0.00 0.00 0.00 86 1019.5
20230207104515 21 0.0 0.0 0.00 0.00 0.00 86 1019.4
20230207103535 21 0.0 0.0 0.00 0.00 0.00 86 1019.4
20230207102515 22 0.0 0.0 0.00 0.00 0.00 86 1019.1
20230207101516 22 0.0 0.0 0.00 0.00 0.00 85 1019.2
20230207100515 22 0.0 0.0 0.00 0.00 0.00 85 1019.6
20230207095516 22 0.0 0.0 0.00 0.00 0.00 85 1019.5